Year,Month,Day,Hour,Minute,Value (Times are PST for windspeed in km/hr)
2010,01,18,00,00,21.10
2010,01,18,00,01,18.90
2010,01,18,00,02,20.40
2010,01,18,00,03,25.20
2010,01,18,00,04,25.50
2010,01,18,00,05,25.70
2010,01,18,00,06,27.00
2010,01,18,00,07,26.10
2010,01,18,00,08,24.10
2010,01,18,00,09,24.50
2010,01,18,00,10,23.50
2010,01,18,00,11,26.40
2010,01,18,00,12,19.40
2010,01,18,00,13,17.20
2010,01,18,00,14,20.20
2010,01,18,00,15,22.10
2010,01,18,00,16,23.30
2010,01,18,00,17,20.20
2010,01,18,00,18,22.40
2010,01,18,00,19,21.10
2010,01,18,00,20,23.40
2010,01,18,00,21,24.50
2010,01,18,00,22,25.50
2010,01,18,00,23,18.30
2010,01,18,00,24,19.70
2010,01,18,00,25,19.50
2010,01,18,00,26,17.60
2010,01,18,00,27,21.90
2010,01,18,00,28,28.00
2010,01,18,00,29,21.70
2010,01,18,00,30,25.70
2010,01,18,00,31,22.80
2010,01,18,00,32,26.60
2010,01,18,00,33,27.40
2010,01,18,00,34,26.60
2010,01,18,00,35,28.00
2010,01,18,00,36,25.00
2010,01,18,00,37,23.60
2010,01,18,00,38,27.80
2010,01,18,00,39,26.20
2010,01,18,00,40,27.40
2010,01,18,00,41,29.50
2010,01,18,00,42,31.50
2010,01,18,00,43,30.30
2010,01,18,00,44,23.90
2010,01,18,00,45,25.60
2010,01,18,00,46,23.70
2010,01,18,00,47,20.10
2010,01,18,00,48,22.50
2010,01,18,00,49,21.80
2010,01,18,00,50,25.50
2010,01,18,00,51,25.50
2010,01,18,00,52,28.20
2010,01,18,00,53,20.80
2010,01,18,00,54,28.90
2010,01,18,00,55,24.20
2010,01,18,00,56,21.20
2010,01,18,00,57,24.80
2010,01,18,00,58,21.80
2010,01,18,00,59,25.50
2010,01,18,01,00,22.80
2010,01,18,01,01,20.90
2010,01,18,01,02,30.60
2010,01,18,01,03,28.50
2010,01,18,01,04,31.80
2010,01,18,01,05,28.50
2010,01,18,01,06,24.40
2010,01,18,01,07,27.20
2010,01,18,01,08,23.60
2010,01,18,01,09,23.10
2010,01,18,01,10,24.50
2010,01,18,01,11,28.50
2010,01,18,01,12,32.50
2010,01,18,01,13,24.60
2010,01,18,01,14,26.00
2010,01,18,01,15,31.80
2010,01,18,01,16,26.30
2010,01,18,01,17,27.90
2010,01,18,01,18,28.60
2010,01,18,01,19,33.40
2010,01,18,01,20,33.60
2010,01,18,01,21,32.80
2010,01,18,01,22,32.80
2010,01,18,01,23,32.50
2010,01,18,01,24,30.40
2010,01,18,01,25,31.00
2010,01,18,01,26,31.10
2010,01,18,01,27,28.30
2010,01,18,01,28,29.10
2010,01,18,01,29,26.20
2010,01,18,01,30,23.00
2010,01,18,01,31,26.60
2010,01,18,01,32,23.10
2010,01,18,01,33,21.50
2010,01,18,01,34,26.00
2010,01,18,01,35,23.70
2010,01,18,01,36,27.80
2010,01,18,01,37,26.40
2010,01,18,01,38,25.70
2010,01,18,01,39,18.80
2010,01,18,01,40,20.10
2010,01,18,01,41,25.10
2010,01,18,01,42,24.70
2010,01,18,01,43,19.50
2010,01,18,01,44,19.20
2010,01,18,01,45,21.30
2010,01,18,01,46,24.10
2010,01,18,01,47,19.50
2010,01,18,01,48,19.10
2010,01,18,01,49,20.90
2010,01,18,01,50,17.90
2010,01,18,01,51,23.60
2010,01,18,01,52,22.80
2010,01,18,01,53,18.70
2010,01,18,01,54,20.40
2010,01,18,01,55,20.00
2010,01,18,01,56,26.00
2010,01,18,01,57,24.10
2010,01,18,01,58,17.10
2010,01,18,01,59,23.50
2010,01,18,02,00,21.90
2010,01,18,02,01,23.30
2010,01,18,02,02,17.30
2010,01,18,02,03,16.30
2010,01,18,02,04,20.90
2010,01,18,02,05,18.70
2010,01,18,02,06,21.00
2010,01,18,02,07,22.80
2010,01,18,02,08,21.90
2010,01,18,02,09,21.90
2010,01,18,02,10,22.40
2010,01,18,02,11,22.70
2010,01,18,02,12,27.30
2010,01,18,02,13,27.60
2010,01,18,02,14,25.00
2010,01,18,02,15,29.60
2010,01,18,02,16,26.90
2010,01,18,02,17,26.60
2010,01,18,02,18,29.60
2010,01,18,02,19,27.50
2010,01,18,02,20,25.90
2010,01,18,02,21,31.20
2010,01,18,02,22,22.70
2010,01,18,02,23,20.00
2010,01,18,02,24,26.10
2010,01,18,02,25,23.50
2010,01,18,02,26,24.90
2010,01,18,02,27,25.50
2010,01,18,02,28,24.60
2010,01,18,02,29,23.00
2010,01,18,02,30,21.30
2010,01,18,02,31,22.40
2010,01,18,02,32,26.30
2010,01,18,02,33,36.10
2010,01,18,02,34,33.50
2010,01,18,02,35,33.10
2010,01,18,02,36,31.10
2010,01,18,02,37,27.40
2010,01,18,02,38,31.10
2010,01,18,02,39,28.00
2010,01,18,02,40,33.00
2010,01,18,02,41,29.20
2010,01,18,02,42,27.40
2010,01,18,02,43,28.80
2010,01,18,02,44,23.30
2010,01,18,02,45,28.50
2010,01,18,02,46,23.30
2010,01,18,02,47,25.70
2010,01,18,02,48,24.70
2010,01,18,02,49,34.60
2010,01,18,02,50,28.40
2010,01,18,02,51,29.60
2010,01,18,02,52,27.40
2010,01,18,02,53,29.20
2010,01,18,02,54,22.40
2010,01,18,02,55,32.70
2010,01,18,02,56,28.60
2010,01,18,02,57,34.80
2010,01,18,02,58,39.20
2010,01,18,02,59,32.40
2010,01,18,03,00,33.30
2010,01,18,03,01,42.90
2010,01,18,03,02,35.30
2010,01,18,03,03,37.00
2010,01,18,03,04,36.60
2010,01,18,03,05,33.40
2010,01,18,03,06,30.00
2010,01,18,03,07,41.80
2010,01,18,03,08,38.50
2010,01,18,03,09,43.30
2010,01,18,03,10,37.20
2010,01,18,03,11,34.60
2010,01,18,03,12,36.70
2010,01,18,03,13,41.60
2010,01,18,03,14,44.00
2010,01,18,03,15,35.50
2010,01,18,03,16,41.20
2010,01,18,03,17,34.50
2010,01,18,03,18,43.50
2010,01,18,03,19,44.30
2010,01,18,03,20,40.90
2010,01,18,03,21,43.30
2010,01,18,03,22,42.50
2010,01,18,03,23,35.90
2010,01,18,03,24,39.60
2010,01,18,03,25,42.20
2010,01,18,03,26,43.60
2010,01,18,03,27,45.80
2010,01,18,03,28,35.60
2010,01,18,03,29,32.30
2010,01,18,03,30,33.70
2010,01,18,03,31,32.60
2010,01,18,03,32,29.00
2010,01,18,03,33,43.20
2010,01,18,03,34,45.90
2010,01,18,03,35,35.70
2010,01,18,03,36,38.40
2010,01,18,03,37,39.30
2010,01,18,03,38,31.80
2010,01,18,03,39,34.30
2010,01,18,03,40,36.70
2010,01,18,03,41,32.10
2010,01,18,03,42,41.50
2010,01,18,03,43,49.80
2010,01,18,03,44,51.70
2010,01,18,03,45,39.80
2010,01,18,03,46,28.80
2010,01,18,03,47,34.50
2010,01,18,03,48,43.00
2010,01,18,03,49,45.70
2010,01,18,03,50,41.30
2010,01,18,03,51,37.60
2010,01,18,03,52,41.90
2010,01,18,03,53,33.10
2010,01,18,03,54,36.90
2010,01,18,03,55,31.70
2010,01,18,03,56,31.90
2010,01,18,03,57,35.40
2010,01,18,03,58,38.10
2010,01,18,03,59,44.90
2010,01,18,04,00,35.60
2010,01,18,04,01,32.80
2010,01,18,04,02,31.50
2010,01,18,04,03,25.10
2010,01,18,04,04,33.60
2010,01,18,04,05,34.30
2010,01,18,04,06,28.60
2010,01,18,04,07,36.40
2010,01,18,04,08,35.40
2010,01,18,04,09,24.20
2010,01,18,04,10,26.60
2010,01,18,04,11,30.30
2010,01,18,04,12,31.40
2010,01,18,04,13,32.50
2010,01,18,04,14,38.10
2010,01,18,04,15,38.80
2010,01,18,04,16,38.10
2010,01,18,04,17,39.00
2010,01,18,04,18,31.90
2010,01,18,04,19,43.70
2010,01,18,04,20,42.60
2010,01,18,04,21,35.10
2010,01,18,04,22,39.50
2010,01,18,04,23,34.90
2010,01,18,04,24,31.90
2010,01,18,04,25,31.10
2010,01,18,04,26,29.80
2010,01,18,04,27,38.50
2010,01,18,04,28,45.80
2010,01,18,04,29,38.40
2010,01,18,04,30,29.10
2010,01,18,04,31,36.20
2010,01,18,04,32,31.90
2010,01,18,04,33,31.60
2010,01,18,04,34,43.90
2010,01,18,04,35,32.70
2010,01,18,04,36,39.90
2010,01,18,04,37,37.30
2010,01,18,04,38,34.60
2010,01,18,04,39,34.70
2010,01,18,04,40,37.30
2010,01,18,04,41,33.60
2010,01,18,04,42,32.00
2010,01,18,04,43,38.90
2010,01,18,04,44,36.40
2010,01,18,04,45,30.70
2010,01,18,04,46,38.10
2010,01,18,04,47,42.00
2010,01,18,04,48,39.60
2010,01,18,04,49,37.30
2010,01,18,04,50,39.50
2010,01,18,04,51,44.40
2010,01,18,04,52,37.50
2010,01,18,04,53,36.60
2010,01,18,04,54,39.10
2010,01,18,04,55,38.60
2010,01,18,04,56,41.50
2010,01,18,04,57,38.80
2010,01,18,04,58,37.40
2010,01,18,04,59,43.40
2010,01,18,05,00,46.40
2010,01,18,05,01,40.50
2010,01,18,05,02,36.00
2010,01,18,05,03,30.40
2010,01,18,05,04,43.60
2010,01,18,05,05,39.90
2010,01,18,05,06,43.50
2010,01,18,05,07,43.50
2010,01,18,05,08,37.50
2010,01,18,05,09,47.80
2010,01,18,05,10,39.60
2010,01,18,05,11,41.60
2010,01,18,05,12,34.00
2010,01,18,05,13,47.80
2010,01,18,05,14,35.00
2010,01,18,05,15,46.80
2010,01,18,05,16,46.30
2010,01,18,05,17,49.70
2010,01,18,05,18,46.10
2010,01,18,05,19,37.70
2010,01,18,05,20,43.50
2010,01,18,05,21,38.80
2010,01,18,05,22,35.40
2010,01,18,05,23,45.30
2010,01,18,05,24,45.60
2010,01,18,05,25,40.50
2010,01,18,05,26,35.60
2010,01,18,05,27,40.40
2010,01,18,05,28,39.30
2010,01,18,05,29,43.10
2010,01,18,05,30,37.60
2010,01,18,05,31,31.90
2010,01,18,05,32,26.20
2010,01,18,05,33,29.40
2010,01,18,05,34,33.50
2010,01,18,05,35,40.60
2010,01,18,05,36,41.70
2010,01,18,05,37,39.90
2010,01,18,05,38,39.60
2010,01,18,05,39,50.00
2010,01,18,05,40,42.20
2010,01,18,05,41,29.30
2010,01,18,05,42,34.70
2010,01,18,05,43,41.40
2010,01,18,05,44,38.40
2010,01,18,05,45,35.00
2010,01,18,05,46,40.00
2010,01,18,05,47,37.50
2010,01,18,05,48,32.90
2010,01,18,05,49,39.70
2010,01,18,05,50,38.30
2010,01,18,05,51,45.40
2010,01,18,05,52,37.40
2010,01,18,05,53,41.80
2010,01,18,05,54,32.60
2010,01,18,05,55,39.30
2010,01,18,05,56,35.60
2010,01,18,05,57,39.60
2010,01,18,05,58,50.00
2010,01,18,05,59,49.60
2010,01,18,06,00,35.20
2010,01,18,06,01,37.00
2010,01,18,06,02,41.50
2010,01,18,06,03,34.30
2010,01,18,06,04,34.50
2010,01,18,06,05,40.30
2010,01,18,06,06,38.90
2010,01,18,06,07,36.60
2010,01,18,06,08,36.10
2010,01,18,06,09,43.00
2010,01,18,06,10,47.40
2010,01,18,06,11,37.70
2010,01,18,06,12,37.80
2010,01,18,06,13,38.80
2010,01,18,06,14,43.40
2010,01,18,06,15,35.70
2010,01,18,06,16,42.70
2010,01,18,06,17,28.90
2010,01,18,06,18,36.60
2010,01,18,06,19,36.90
2010,01,18,06,20,34.90
2010,01,18,06,21,35.40
2010,01,18,06,22,45.20
2010,01,18,06,23,33.90
2010,01,18,06,24,41.00
2010,01,18,06,25,31.70
2010,01,18,06,26,33.80
2010,01,18,06,27,38.40
2010,01,18,06,28,41.50
2010,01,18,06,29,41.00
2010,01,18,06,30,35.00
2010,01,18,06,31,33.90
2010,01,18,06,32,31.70
2010,01,18,06,33,28.30
2010,01,18,06,34,37.20
2010,01,18,06,35,35.60
2010,01,18,06,36,35.50
2010,01,18,06,37,37.80
2010,01,18,06,38,31.60
2010,01,18,06,39,27.00
2010,01,18,06,40,30.60
2010,01,18,06,41,37.70
2010,01,18,06,42,32.70
2010,01,18,06,43,36.30
2010,01,18,06,44,31.60
2010,01,18,06,45,37.90
2010,01,18,06,46,32.90
2010,01,18,06,47,25.70
2010,01,18,06,48,29.30
2010,01,18,06,49,31.50
2010,01,18,06,50,29.80
2010,01,18,06,51,31.80
2010,01,18,06,52,27.20
2010,01,18,06,53,28.60
2010,01,18,06,54,32.20
2010,01,18,06,55,29.60
2010,01,18,06,56,25.40
2010,01,18,06,57,29.30
2010,01,18,06,58,28.60
2010,01,18,06,59,24.00
2010,01,18,07,00,29.90
2010,01,18,07,01,32.70
2010,01,18,07,02,35.80
2010,01,18,07,03,34.40
2010,01,18,07,04,32.10
2010,01,18,07,05,28.10
2010,01,18,07,06,29.00
2010,01,18,07,07,24.60
2010,01,18,07,08,29.30
2010,01,18,07,09,32.10
2010,01,18,07,10,29.10
2010,01,18,07,11,29.80
2010,01,18,07,12,25.20
2010,01,18,07,13,27.90
2010,01,18,07,14,36.20
2010,01,18,07,15,29.30
2010,01,18,07,16,27.70
2010,01,18,07,17,26.60
2010,01,18,07,18,21.40
2010,01,18,07,19,17.90
2010,01,18,07,20,22.50
2010,01,18,07,21,19.30
2010,01,18,07,22,22.50
2010,01,18,07,23,29.10
2010,01,18,07,24,20.70
2010,01,18,07,25,24.90
2010,01,18,07,26,24.80
2010,01,18,07,27,19.80
2010,01,18,07,28,16.40
2010,01,18,07,29,19.80
2010,01,18,07,30,22.20
2010,01,18,07,31,24.50
2010,01,18,07,32,24.10
2010,01,18,07,33,27.30
2010,01,18,07,34,22.40
2010,01,18,07,35,22.70
2010,01,18,07,36,22.90
2010,01,18,07,37,23.20
2010,01,18,07,38,21.40
2010,01,18,07,39,26.00
2010,01,18,07,40,29.30
2010,01,18,07,41,27.00
2010,01,18,07,42,22.20
2010,01,18,07,43,25.30
2010,01,18,07,44,23.90
2010,01,18,07,45,31.10
2010,01,18,07,46,27.90
2010,01,18,07,47,26.30
2010,01,18,07,48,25.20
2010,01,18,07,49,27.00
2010,01,18,07,50,25.60
2010,01,18,07,51,27.70
2010,01,18,07,52,26.40
2010,01,18,07,53,25.00
2010,01,18,07,54,27.20
2010,01,18,07,55,25.70
2010,01,18,07,56,31.50
2010,01,18,07,57,34.60
2010,01,18,07,58,20.80
2010,01,18,07,59,23.30
2010,01,18,08,00,29.10
2010,01,18,08,01,25.60
2010,01,18,08,02,33.50
2010,01,18,08,03,19.10
2010,01,18,08,04,22.90
2010,01,18,08,05,28.00
2010,01,18,08,06,30.00
2010,01,18,08,07,28.80
2010,01,18,08,08,25.70
2010,01,18,08,09,21.50
2010,01,18,08,10,29.00
2010,01,18,08,11,20.50
2010,01,18,08,12,27.90
2010,01,18,08,13,28.80
2010,01,18,08,14,23.30
2010,01,18,08,15,19.10
2010,01,18,08,16,20.60
2010,01,18,08,17,27.90
2010,01,18,08,18,22.50
2010,01,18,08,19,20.10
2010,01,18,08,20,22.40
2010,01,18,08,21,28.80
2010,01,18,08,22,26.90
2010,01,18,08,23,19.80
2010,01,18,08,24,24.70
2010,01,18,08,25,20.90
2010,01,18,08,26,22.70
2010,01,18,08,27,25.70
2010,01,18,08,28,23.30
2010,01,18,08,29,24.40
2010,01,18,08,30,28.00
2010,01,18,08,31,24.50
2010,01,18,08,32,20.10
2010,01,18,08,33,18.70
2010,01,18,08,34,21.10
2010,01,18,08,35,17.40
2010,01,18,08,36,16.70
2010,01,18,08,37,14.60
2010,01,18,08,38,17.40
2010,01,18,08,39,16.00
2010,01,18,08,40,14.00
2010,01,18,08,41,16.80
2010,01,18,08,42,15.60
2010,01,18,08,43,18.40
2010,01,18,08,44,14.90
2010,01,18,08,45,13.60
2010,01,18,08,46,17.00
2010,01,18,08,47,17.10
2010,01,18,08,48,15.40
2010,01,18,08,49,13.70
2010,01,18,08,50,11.60
2010,01,18,08,51,15.80
2010,01,18,08,52,16.80
2010,01,18,08,53,18.50
2010,01,18,08,54,20.80
2010,01,18,08,55,19.00
2010,01,18,08,56,21.10
2010,01,18,08,57,21.60
2010,01,18,08,58,25.90
2010,01,18,08,59,22.30
2010,01,18,09,00,31.90
2010,01,18,09,01,21.80
2010,01,18,09,02,26.70
2010,01,18,09,03,22.80
2010,01,18,09,04,20.80
2010,01,18,09,05,20.90
2010,01,18,09,06,25.10
2010,01,18,09,07,26.40
2010,01,18,09,08,23.40
2010,01,18,09,09,21.60
2010,01,18,09,10,19.80
2010,01,18,09,11,21.60
2010,01,18,09,12,21.40
2010,01,18,09,13,23.60
2010,01,18,09,14,18.20
2010,01,18,09,15,21.70
2010,01,18,09,16,19.50
2010,01,18,09,17,23.30
2010,01,18,09,18,20.40
2010,01,18,09,19,28.70
2010,01,18,09,20,26.00
2010,01,18,09,21,24.30
2010,01,18,09,22,24.00
2010,01,18,09,23,24.70
2010,01,18,09,24,26.20
2010,01,18,09,25,20.40
2010,01,18,09,26,22.90
2010,01,18,09,27,20.10
2010,01,18,09,28,16.40
2010,01,18,09,29,21.10
2010,01,18,09,30,23.70
2010,01,18,09,31,19.60
2010,01,18,09,32,20.30
2010,01,18,09,33,19.80
2010,01,18,09,34,25.40
2010,01,18,09,35,20.00
2010,01,18,09,36,23.00
2010,01,18,09,37,21.40
2010,01,18,09,38,21.20
2010,01,18,09,39,23.50
2010,01,18,09,40,21.10
2010,01,18,09,41,19.90
2010,01,18,09,42,19.80
2010,01,18,09,43,15.60
2010,01,18,09,44,20.00
2010,01,18,09,45,27.40
2010,01,18,09,46,31.80
2010,01,18,09,47,23.30
2010,01,18,09,48,26.70
2010,01,18,09,49,24.80
2010,01,18,09,50,21.30
2010,01,18,09,51,34.20
2010,01,18,09,52,29.40
2010,01,18,09,53,27.20
2010,01,18,09,54,25.10
2010,01,18,09,55,15.20
2010,01,18,09,56,17.50
2010,01,18,09,57,23.50
2010,01,18,09,58,22.00
2010,01,18,09,59,16.70
2010,01,18,10,00,17.00
2010,01,18,10,01,17.70
2010,01,18,10,02,22.80
2010,01,18,10,03,20.10
2010,01,18,10,04,24.60
2010,01,18,10,05,20.80
2010,01,18,10,06,20.40
2010,01,18,10,07,21.20
2010,01,18,10,08,19.80
2010,01,18,10,09,19.80
2010,01,18,10,10,18.10
2010,01,18,10,11,22.90
2010,01,18,10,12,24.40
2010,01,18,10,13,18.00
2010,01,18,10,14,17.70
2010,01,18,10,15,17.70
2010,01,18,10,16,24.90
2010,01,18,10,17,21.60
2010,01,18,10,18,21.20
2010,01,18,10,19,19.60
2010,01,18,10,20,20.20
2010,01,18,10,21,18.10
2010,01,18,10,22,18.30
2010,01,18,10,23,21.10
2010,01,18,10,24,28.10
2010,01,18,10,25,23.50
2010,01,18,10,26,22.70
2010,01,18,10,27,23.00
2010,01,18,10,28,22.20
2010,01,18,10,29,19.60
2010,01,18,10,30,24.00
2010,01,18,10,31,25.70
2010,01,18,10,32,23.50
2010,01,18,10,33,23.00
2010,01,18,10,34,23.60
2010,01,18,10,35,29.10
2010,01,18,10,36,28.10
2010,01,18,10,37,27.20
2010,01,18,10,38,28.10
2010,01,18,10,39,27.30
2010,01,18,10,40,28.00
2010,01,18,10,41,28.60
2010,01,18,10,42,26.60
2010,01,18,10,43,23.30
2010,01,18,10,44,21.60
2010,01,18,10,45,23.00
2010,01,18,10,46,21.20
2010,01,18,10,47,17.90
2010,01,18,10,48,22.00
2010,01,18,10,49,23.30
2010,01,18,10,50,24.20
2010,01,18,10,51,23.20
2010,01,18,10,52,22.40
2010,01,18,10,53,23.20
2010,01,18,10,54,24.30
2010,01,18,10,55,22.20
2010,01,18,10,56,20.20
2010,01,18,10,57,21.60
2010,01,18,10,58,21.70
2010,01,18,10,59,19.00
2010,01,18,11,00,19.80
2010,01,18,11,01,23.00
2010,01,18,11,02,21.60
2010,01,18,11,03,24.00
2010,01,18,11,04,26.70
2010,01,18,11,05,26.10
2010,01,18,11,06,19.80
2010,01,18,11,07,18.00
2010,01,18,11,08,21.30
2010,01,18,11,09,25.30
2010,01,18,11,10,15.00
2010,01,18,11,11,19.50
2010,01,18,11,12,24.10
2010,01,18,11,13,26.00
2010,01,18,11,14,21.20
2010,01,18,11,15,22.60
2010,01,18,11,16,27.70
2010,01,18,11,17,23.50
2010,01,18,11,18,19.20
2010,01,18,11,19,16.50
2010,01,18,11,20,19.90
2010,01,18,11,21,18.10
2010,01,18,11,22,19.30
2010,01,18,11,23,22.60
2010,01,18,11,24,25.40
2010,01,18,11,25,23.30
2010,01,18,11,26,19.70
2010,01,18,11,27,22.00
2010,01,18,11,28,19.10
2010,01,18,11,29,16.20
2010,01,18,11,30,21.90
2010,01,18,11,31,17.10
2010,01,18,11,32,17.90
2010,01,18,11,33,15.40
2010,01,18,11,34,17.60
2010,01,18,11,35,20.40
2010,01,18,11,36,22.10
2010,01,18,11,37,20.20
2010,01,18,11,38,23.90
2010,01,18,11,39,23.40
2010,01,18,11,40,20.30
2010,01,18,11,41,21.20
2010,01,18,11,42,22.90
2010,01,18,11,43,17.40
2010,01,18,11,44,17.70
2010,01,18,11,45,24.60
2010,01,18,11,46,23.20
2010,01,18,11,47,14.00
2010,01,18,11,48,23.20
2010,01,18,11,49,24.00
2010,01,18,11,50,25.10
2010,01,18,11,51,17.60
2010,01,18,11,52,22.40
2010,01,18,11,53,26.90
2010,01,18,11,54,22.80
2010,01,18,11,55,21.90
2010,01,18,11,56,21.10
2010,01,18,11,57,19.50
2010,01,18,11,58,27.50
2010,01,18,11,59,20.30
2010,01,18,12,00,19.40
2010,01,18,12,01,22.00
2010,01,18,12,02,23.90
2010,01,18,12,03,23.20
2010,01,18,12,04,20.80
2010,01,18,12,05,25.10
2010,01,18,12,06,26.10
2010,01,18,12,07,24.80
2010,01,18,12,08,24.60
2010,01,18,12,09,25.00
2010,01,18,12,10,23.90
2010,01,18,12,11,20.40
2010,01,18,12,12,22.90
2010,01,18,12,13,21.30
2010,01,18,12,14,20.80
2010,01,18,12,15,21.80
2010,01,18,12,16,24.90
2010,01,18,12,17,26.30
2010,01,18,12,18,27.30
2010,01,18,12,19,24.70
2010,01,18,12,20,27.30
2010,01,18,12,21,23.90
2010,01,18,12,22,21.70
2010,01,18,12,23,27.10
2010,01,18,12,24,20.30
2010,01,18,12,25,21.30
2010,01,18,12,26,24.90
2010,01,18,12,27,24.20
2010,01,18,12,28,21.40
2010,01,18,12,29,22.40
2010,01,18,12,30,24.90
2010,01,18,12,31,26.90
2010,01,18,12,32,28.40
2010,01,18,12,33,27.90
2010,01,18,12,34,27.00
2010,01,18,12,35,24.10
2010,01,18,12,36,20.60
2010,01,18,12,37,21.00
2010,01,18,12,38,23.00
2010,01,18,12,39,19.60
2010,01,18,12,40,16.60
2010,01,18,12,41,19.00
2010,01,18,12,42,16.50
2010,01,18,12,43,16.70
2010,01,18,12,44,19.00
2010,01,18,12,45,14.10
2010,01,18,12,46,11.00
2010,01,18,12,47,10.10
2010,01,18,12,48,16.90
2010,01,18,12,49,13.80
2010,01,18,12,50,9.10
2010,01,18,12,51,12.50
2010,01,18,12,52,14.40
2010,01,18,12,53,12.20
2010,01,18,12,54,6.60
2010,01,18,12,55,14.40
2010,01,18,12,56,16.00
2010,01,18,12,57,16.80
2010,01,18,12,58,15.90
2010,01,18,12,59,15.80
2010,01,18,13,00,14.60
2010,01,18,13,01,10.10
2010,01,18,13,02,15.80
2010,01,18,13,03,17.80
2010,01,18,13,04,17.00
2010,01,18,13,05,16.30
2010,01,18,13,06,11.00
2010,01,18,13,07,8.60
2010,01,18,13,08,12.60
2010,01,18,13,09,13.80
2010,01,18,13,10,11.70
2010,01,18,13,11,18.60
2010,01,18,13,12,17.30
2010,01,18,13,13,12.60
2010,01,18,13,14,6.30
2010,01,18,13,15,7.50
2010,01,18,13,16,12.90
2010,01,18,13,17,14.20
2010,01,18,13,18,9.10
2010,01,18,13,19,14.00
2010,01,18,13,20,13.00
2010,01,18,13,21,13.40
2010,01,18,13,22,13.40
2010,01,18,13,23,16.50
2010,01,18,13,24,13.40
2010,01,18,13,25,10.00
2010,01,18,13,26,13.80
2010,01,18,13,27,14.60
2010,01,18,13,28,16.30
2010,01,18,13,29,13.40
2010,01,18,13,30,15.50
2010,01,18,13,31,18.60
2010,01,18,13,32,15.90
2010,01,18,13,33,12.60
2010,01,18,13,34,10.00
2010,01,18,13,35,16.10
2010,01,18,13,36,17.00
2010,01,18,13,37,15.90
2010,01,18,13,38,11.80
2010,01,18,13,39,18.30
2010,01,18,13,40,19.70
2010,01,18,13,41,21.50
2010,01,18,13,42,19.30
2010,01,18,13,43,19.00
2010,01,18,13,44,17.50
2010,01,18,13,45,11.30
2010,01,18,13,46,11.70
2010,01,18,13,47,14.90
2010,01,18,13,48,11.50
2010,01,18,13,49,14.20
2010,01,18,13,50,14.30
2010,01,18,13,51,21.10
2010,01,18,13,52,20.30
2010,01,18,13,53,20.40
2010,01,18,13,54,15.50
2010,01,18,13,55,16.70
2010,01,18,13,56,19.80
2010,01,18,13,57,20.70
2010,01,18,13,58,15.90
2010,01,18,13,59,12.20
2010,01,18,14,00,17.10
2010,01,18,14,01,18.00
2010,01,18,14,02,10.80
2010,01,18,14,03,11.70
2010,01,18,14,04,15.90
2010,01,18,14,05,14.00
2010,01,18,14,06,17.90
2010,01,18,14,07,14.90
2010,01,18,14,08,15.00
2010,01,18,14,09,14.20
2010,01,18,14,10,18.80
2010,01,18,14,11,20.40
2010,01,18,14,12,17.10
2010,01,18,14,13,9.60
2010,01,18,14,14,13.90
2010,01,18,14,15,16.10
2010,01,18,14,16,12.50
2010,01,18,14,17,15.30
2010,01,18,14,18,17.30
2010,01,18,14,19,12.70
2010,01,18,14,20,9.30
2010,01,18,14,21,15.50
2010,01,18,14,22,17.50
2010,01,18,14,23,13.90
2010,01,18,14,24,12.60
2010,01,18,14,25,17.10
2010,01,18,14,26,11.70
2010,01,18,14,27,12.40
2010,01,18,14,28,12.70
2010,01,18,14,29,12.20
2010,01,18,14,30,15.00
2010,01,18,14,31,14.60
2010,01,18,14,32,10.00
2010,01,18,14,33,13.30
2010,01,18,14,34,14.70
2010,01,18,14,35,16.30
2010,01,18,14,36,20.00
2010,01,18,14,37,16.90
2010,01,18,14,38,12.60
2010,01,18,14,39,10.80
2010,01,18,14,40,14.90
2010,01,18,14,41,14.80
2010,01,18,14,42,16.20
2010,01,18,14,43,17.20
2010,01,18,14,44,15.80
2010,01,18,14,45,16.20
2010,01,18,14,46,14.90
2010,01,18,14,47,10.10
2010,01,18,14,48,14.20
2010,01,18,14,49,14.60
2010,01,18,14,50,14.20
2010,01,18,14,51,11.40
2010,01,18,14,52,16.70
2010,01,18,14,53,17.70
2010,01,18,14,54,19.10
2010,01,18,14,55,13.00
2010,01,18,14,56,13.10
2010,01,18,14,57,11.30
2010,01,18,14,58,11.40
2010,01,18,14,59,10.00
2010,01,18,15,00,16.00
2010,01,18,15,01,13.40
2010,01,18,15,02,14.50
2010,01,18,15,03,13.60
2010,01,18,15,04,14.70
2010,01,18,15,05,10.40
2010,01,18,15,06,10.90
2010,01,18,15,07,12.20
2010,01,18,15,08,14.50
2010,01,18,15,09,14.50
2010,01,18,15,10,14.50
2010,01,18,15,11,14.50
2010,01,18,15,12,12.50
2010,01,18,15,13,9.10
2010,01,18,15,14,8.70
2010,01,18,15,15,9.30
2010,01,18,15,16,8.10
2010,01,18,15,17,11.40
2010,01,18,15,18,11.60
2010,01,18,15,19,13.40
2010,01,18,15,20,12.40
2010,01,18,15,21,10.60
2010,01,18,15,22,14.00
2010,01,18,15,23,15.60
2010,01,18,15,24,16.20
2010,01,18,15,25,13.60
2010,01,18,15,26,10.10
2010,01,18,15,27,12.60
2010,01,18,15,28,16.80
2010,01,18,15,29,16.90
2010,01,18,15,30,20.20
2010,01,18,15,31,17.10
2010,01,18,15,32,14.90
2010,01,18,15,33,16.70
2010,01,18,15,34,12.20
2010,01,18,15,35,9.70
2010,01,18,15,36,11.90
2010,01,18,15,37,13.50
2010,01,18,15,38,15.00
2010,01,18,15,39,11.20
2010,01,18,15,40,11.00
2010,01,18,15,41,8.80
2010,01,18,15,42,10.90
2010,01,18,15,43,11.50
2010,01,18,15,44,14.70
2010,01,18,15,45,12.60
2010,01,18,15,46,8.90
2010,01,18,15,47,8.50
2010,01,18,15,48,11.60
2010,01,18,15,49,10.00
2010,01,18,15,50,10.60
2010,01,18,15,51,13.30
2010,01,18,15,52,9.30
2010,01,18,15,53,7.90
2010,01,18,15,54,10.00
2010,01,18,15,55,11.10
2010,01,18,15,56,11.70
2010,01,18,15,57,14.80
2010,01,18,15,58,13.90
2010,01,18,15,59,16.30
2010,01,18,16,00,15.50
2010,01,18,16,01,14.50
2010,01,18,16,02,11.80
2010,01,18,16,03,11.30
2010,01,18,16,04,13.60
2010,01,18,16,05,17.10
2010,01,18,16,06,10.80
2010,01,18,16,07,14.70
2010,01,18,16,08,11.60
2010,01,18,16,09,13.60
2010,01,18,16,10,10.80
2010,01,18,16,11,10.10
2010,01,18,16,12,14.60
2010,01,18,16,13,14.20
2010,01,18,16,14,11.80
2010,01,18,16,15,11.60
2010,01,18,16,16,9.10
2010,01,18,16,17,8.40
2010,01,18,16,18,11.20
2010,01,18,16,19,9.80
2010,01,18,16,20,9.50
2010,01,18,16,21,12.50
2010,01,18,16,22,14.10
2010,01,18,16,23,10.30
2010,01,18,16,24,14.70
2010,01,18,16,25,11.60
2010,01,18,16,26,12.50
2010,01,18,16,27,11.00
2010,01,18,16,28,11.30
2010,01,18,16,29,9.80
2010,01,18,16,30,8.50
2010,01,18,16,31,10.90
2010,01,18,16,32,10.50
2010,01,18,16,33,10.30
2010,01,18,16,34,9.30
2010,01,18,16,35,9.20
2010,01,18,16,36,9.20
2010,01,18,16,37,10.10
2010,01,18,16,38,7.70
2010,01,18,16,39,8.00
2010,01,18,16,40,5.80
2010,01,18,16,41,8.10
2010,01,18,16,42,7.20
2010,01,18,16,43,8.10
2010,01,18,16,44,11.20
2010,01,18,16,45,11.20
2010,01,18,16,46,10.50
2010,01,18,16,47,10.40
2010,01,18,16,48,12.00
2010,01,18,16,49,12.10
2010,01,18,16,50,11.80
2010,01,18,16,51,10.90
2010,01,18,16,52,9.30
2010,01,18,16,53,10.10
2010,01,18,16,54,10.30
2010,01,18,16,55,11.90
2010,01,18,16,56,13.00
2010,01,18,16,57,8.70
2010,01,18,16,58,7.90
2010,01,18,16,59,9.10
2010,01,18,17,00,7.30
2010,01,18,17,01,8.60
2010,01,18,17,02,7.90
2010,01,18,17,03,9.60
2010,01,18,17,04,10.50
2010,01,18,17,05,9.00
2010,01,18,17,06,10.70
2010,01,18,17,07,11.70
2010,01,18,17,08,11.60
2010,01,18,17,09,12.00
2010,01,18,17,10,11.70
2010,01,18,17,11,11.20
2010,01,18,17,12,9.40
2010,01,18,17,13,10.20
2010,01,18,17,14,8.30
2010,01,18,17,15,9.80
2010,01,18,17,16,8.80
2010,01,18,17,17,8.00
2010,01,18,17,18,7.80
2010,01,18,17,19,6.20
2010,01,18,17,20,5.80
2010,01,18,17,21,5.10